Year,Month,Day,Hour,Minute,Value (Times are PST for temperature in C)
2009,06,30,00,00,8.60
2009,06,30,00,01,8.60
2009,06,30,00,02,8.60
2009,06,30,00,03,8.60
2009,06,30,00,04,8.60
2009,06,30,00,05,8.50
2009,06,30,00,06,8.50
2009,06,30,00,07,8.50
2009,06,30,00,08,8.50
2009,06,30,00,09,8.50
2009,06,30,00,10,8.40
2009,06,30,00,11,8.40
2009,06,30,00,12,8.40
2009,06,30,00,13,8.40
2009,06,30,00,14,8.40
2009,06,30,00,15,8.40
2009,06,30,00,16,8.40
2009,06,30,00,17,8.40
2009,06,30,00,18,8.40
2009,06,30,00,19,8.40
2009,06,30,00,20,8.40
2009,06,30,00,21,8.40
2009,06,30,00,22,8.40
2009,06,30,00,23,8.40
2009,06,30,00,24,8.40
2009,06,30,00,25,8.40
2009,06,30,00,26,8.30
2009,06,30,00,27,8.30
2009,06,30,00,28,8.30
2009,06,30,00,29,8.30
2009,06,30,00,30,8.30
2009,06,30,00,31,8.30
2009,06,30,00,32,8.30
2009,06,30,00,33,8.30
2009,06,30,00,34,8.30
2009,06,30,00,35,8.20
2009,06,30,00,36,8.20
2009,06,30,00,37,8.20
2009,06,30,00,38,8.20
2009,06,30,00,39,8.20
2009,06,30,00,40,8.20
2009,06,30,00,41,8.20
2009,06,30,00,42,8.20
2009,06,30,00,43,8.20
2009,06,30,00,44,8.20
2009,06,30,00,45,8.20
2009,06,30,00,46,8.20
2009,06,30,00,47,8.20
2009,06,30,00,48,8.20
2009,06,30,00,49,8.20
2009,06,30,00,50,8.20
2009,06,30,00,51,8.20
2009,06,30,00,52,8.10
2009,06,30,00,53,8.10
2009,06,30,00,54,8.10
2009,06,30,00,55,8.10
2009,06,30,00,56,8.10
2009,06,30,00,57,8.00
2009,06,30,00,58,8.00
2009,06,30,00,59,8.00
2009,06,30,01,00,8.00
2009,06,30,01,01,7.90
2009,06,30,01,02,7.90
2009,06,30,01,03,7.90
2009,06,30,01,04,7.90
2009,06,30,01,05,7.90
2009,06,30,01,06,7.80
2009,06,30,01,07,7.80
2009,06,30,01,08,7.80
2009,06,30,01,09,7.80
2009,06,30,01,10,7.80
2009,06,30,01,11,7.80
2009,06,30,01,12,7.80
2009,06,30,01,13,7.80
2009,06,30,01,14,7.80
2009,06,30,01,15,7.80
2009,06,30,01,16,7.70
2009,06,30,01,17,7.70
2009,06,30,01,18,7.70
2009,06,30,01,19,7.70
2009,06,30,01,20,7.70
2009,06,30,01,21,7.70
2009,06,30,01,22,7.70
2009,06,30,01,23,7.70
2009,06,30,01,24,7.70
2009,06,30,01,25,7.70
2009,06,30,01,26,7.60
2009,06,30,01,27,7.60
2009,06,30,01,28,7.60
2009,06,30,01,29,7.60
2009,06,30,01,30,7.60
2009,06,30,01,31,7.60
2009,06,30,01,32,7.60
2009,06,30,01,33,7.60
2009,06,30,01,34,7.50
2009,06,30,01,35,7.50
2009,06,30,01,36,7.50
2009,06,30,01,37,7.50
2009,06,30,01,38,7.50
2009,06,30,01,39,7.50
2009,06,30,01,40,7.50
2009,06,30,01,41,7.50
2009,06,30,01,42,7.40
2009,06,30,01,43,7.40
2009,06,30,01,44,7.40
2009,06,30,01,45,7.40
2009,06,30,01,46,7.40
2009,06,30,01,47,7.40
2009,06,30,01,48,7.40
2009,06,30,01,49,7.40
2009,06,30,01,50,7.30
2009,06,30,01,51,7.30
2009,06,30,01,52,7.30
2009,06,30,01,53,7.30
2009,06,30,01,54,7.30
2009,06,30,01,55,7.30
2009,06,30,01,56,7.30
2009,06,30,01,57,7.30
2009,06,30,01,58,7.30
2009,06,30,01,59,7.30
2009,06,30,02,00,7.30
2009,06,30,02,01,7.30
2009,06,30,02,02,7.20
2009,06,30,02,03,7.20
2009,06,30,02,04,7.20
2009,06,30,02,05,7.20
2009,06,30,02,06,7.20
2009,06,30,02,07,7.20
2009,06,30,02,08,7.20
2009,06,30,02,09,7.20
2009,06,30,02,10,7.20
2009,06,30,02,11,7.20
2009,06,30,02,12,7.20
2009,06,30,02,13,7.20
2009,06,30,02,14,7.20
2009,06,30,02,15,7.20
2009,06,30,02,16,7.10
2009,06,30,02,17,7.10
2009,06,30,02,18,7.10
2009,06,30,02,19,7.10
2009,06,30,02,20,7.10
2009,06,30,02,21,7.10
2009,06,30,02,22,7.10
2009,06,30,02,23,7.10
2009,06,30,02,24,7.10
2009,06,30,02,25,7.10
2009,06,30,02,26,7.00
2009,06,30,02,27,7.00
2009,06,30,02,28,7.00
2009,06,30,02,29,7.00
2009,06,30,02,30,7.00
2009,06,30,02,31,6.90
2009,06,30,02,32,6.90
2009,06,30,02,33,6.90
2009,06,30,02,34,6.90
2009,06,30,02,35,6.90
2009,06,30,02,36,6.90
2009,06,30,02,37,6.90
2009,06,30,02,38,6.90
2009,06,30,02,39,6.90
2009,06,30,02,40,6.90
2009,06,30,02,41,6.90
2009,06,30,02,42,6.90
2009,06,30,02,43,6.90
2009,06,30,02,44,6.90
2009,06,30,02,45,6.90
2009,06,30,02,46,6.90
2009,06,30,02,47,6.90
2009,06,30,02,48,6.80
2009,06,30,02,49,6.80
2009,06,30,02,50,6.80
2009,06,30,02,51,6.80
2009,06,30,02,52,6.80
2009,06,30,02,53,6.80
2009,06,30,02,54,6.80
2009,06,30,02,55,6.80
2009,06,30,02,56,6.80
2009,06,30,02,57,6.70
2009,06,30,02,58,6.70
2009,06,30,02,59,6.70
2009,06,30,03,00,6.70
2009,06,30,03,01,6.70
2009,06,30,03,02,6.70
2009,06,30,03,03,6.70
2009,06,30,03,04,6.70
2009,06,30,03,05,6.70
2009,06,30,03,06,6.70
2009,06,30,03,07,6.70
2009,06,30,03,08,6.70
2009,06,30,03,09,6.70
2009,06,30,03,10,6.60
2009,06,30,03,11,6.60
2009,06,30,03,12,6.60
2009,06,30,03,13,6.60
2009,06,30,03,14,6.60
2009,06,30,03,15,6.60
2009,06,30,03,16,6.60
2009,06,30,03,17,6.60
2009,06,30,03,18,6.60
2009,06,30,03,19,6.60
2009,06,30,03,20,6.60
2009,06,30,03,21,6.60
2009,06,30,03,22,6.50
2009,06,30,03,23,6.50
2009,06,30,03,24,6.50
2009,06,30,03,25,6.50
2009,06,30,03,26,6.50
2009,06,30,03,27,6.50
2009,06,30,03,28,6.40
2009,06,30,03,29,6.40
2009,06,30,03,30,6.40
2009,06,30,03,31,6.40
2009,06,30,03,32,6.40
2009,06,30,03,33,6.40
2009,06,30,03,34,6.40
2009,06,30,03,35,6.40
2009,06,30,03,36,6.40
2009,06,30,03,37,6.40
2009,06,30,03,38,6.40
2009,06,30,03,39,6.30
2009,06,30,03,40,6.30
2009,06,30,03,41,6.30
2009,06,30,03,42,6.30
2009,06,30,03,43,6.30
2009,06,30,03,44,6.30
2009,06,30,03,45,6.30
2009,06,30,03,46,6.30
2009,06,30,03,47,6.30
2009,06,30,03,48,6.30
2009,06,30,03,49,6.30
2009,06,30,03,50,6.30
2009,06,30,03,51,6.20
2009,06,30,03,52,6.20
2009,06,30,03,53,6.20
2009,06,30,03,54,6.20
2009,06,30,03,55,6.20
2009,06,30,03,56,6.20
2009,06,30,03,57,6.20
2009,06,30,03,58,6.20
2009,06,30,03,59,6.20
2009,06,30,04,00,6.20
2009,06,30,04,01,6.20
2009,06,30,04,02,6.20
2009,06,30,04,03,6.20
2009,06,30,04,04,6.20
2009,06,30,04,17,6.10
2009,06,30,04,29,5.90
2009,06,30,04,33,5.90
2009,06,30,04,34,5.90
2009,06,30,04,35,5.90
2009,06,30,04,36,5.90
2009,06,30,04,37,5.90
2009,06,30,04,38,5.90
2009,06,30,04,39,5.90
2009,06,30,04,40,5.90
2009,06,30,04,41,5.90
2009,06,30,04,42,5.80
2009,06,30,04,43,5.80
2009,06,30,04,44,5.80
2009,06,30,04,45,5.80
2009,06,30,04,46,5.80
2009,06,30,04,47,5.80
2009,06,30,04,48,5.80
2009,06,30,04,49,5.80
2009,06,30,04,50,5.80
2009,06,30,04,51,5.80
2009,06,30,04,52,5.80
2009,06,30,04,53,5.80
2009,06,30,04,54,5.80
2009,06,30,04,55,5.80
2009,06,30,04,56,5.80
2009,06,30,04,57,5.80
2009,06,30,04,58,5.80
2009,06,30,04,59,5.80
2009,06,30,05,00,5.80
2009,06,30,05,01,5.80
2009,06,30,05,02,5.80
2009,06,30,05,03,5.80
2009,06,30,05,04,5.80
2009,06,30,05,05,5.80
2009,06,30,05,06,5.80
2009,06,30,05,07,5.70
2009,06,30,05,08,5.70
2009,06,30,05,09,5.70
2009,06,30,05,10,5.70
2009,06,30,05,11,5.70
2009,06,30,05,12,5.70
2009,06,30,05,13,5.70
2009,06,30,05,14,5.70
2009,06,30,05,15,5.70
2009,06,30,05,16,5.70
2009,06,30,05,17,5.70
2009,06,30,05,18,5.70
2009,06,30,05,19,5.70
2009,06,30,05,20,5.70
2009,06,30,05,21,5.60
2009,06,30,05,22,5.60
2009,06,30,05,23,5.60
2009,06,30,05,24,5.60
2009,06,30,05,25,5.60
2009,06,30,05,26,5.60
2009,06,30,05,27,5.60
2009,06,30,05,28,5.60
2009,06,30,05,29,5.60
2009,06,30,05,30,5.60
2009,06,30,05,31,5.60
2009,06,30,05,32,5.60
2009,06,30,05,33,5.60
2009,06,30,05,34,5.60
2009,06,30,05,35,5.60
2009,06,30,05,36,5.60
2009,06,30,05,37,5.60
2009,06,30,05,38,5.60
2009,06,30,05,39,5.60
2009,06,30,05,40,5.60
2009,06,30,05,41,5.60
2009,06,30,05,42,5.60
2009,06,30,05,43,5.60
2009,06,30,05,44,5.60
2009,06,30,05,45,5.60
2009,06,30,05,46,5.60
2009,06,30,05,47,5.60
2009,06,30,05,48,5.60
2009,06,30,05,49,5.60
2009,06,30,05,50,5.60
2009,06,30,05,51,5.60
2009,06,30,05,52,5.60
2009,06,30,05,53,5.60
2009,06,30,05,54,5.60
2009,06,30,05,55,5.60
2009,06,30,05,56,5.60
2009,06,30,05,57,5.60
2009,06,30,05,58,5.60
2009,06,30,05,59,5.70
2009,06,30,06,00,5.60
2009,06,30,06,01,5.60
2009,06,30,06,02,5.70
2009,06,30,06,03,5.60
2009,06,30,06,04,5.60
2009,06,30,06,05,5.60
2009,06,30,06,06,5.60
2009,06,30,06,07,5.60
2009,06,30,06,08,5.70
2009,06,30,06,09,5.70
2009,06,30,06,10,5.70
2009,06,30,06,11,5.70
2009,06,30,06,12,5.70
2009,06,30,06,13,5.70
2009,06,30,06,14,5.70
2009,06,30,06,15,5.70
2009,06,30,06,16,5.80
2009,06,30,06,17,5.80
2009,06,30,06,18,5.80
2009,06,30,06,19,5.80
2009,06,30,06,20,5.80
2009,06,30,06,21,5.80
2009,06,30,06,22,5.80
2009,06,30,06,23,5.80
2009,06,30,06,24,5.80
2009,06,30,06,25,5.90
2009,06,30,06,26,5.90
2009,06,30,06,27,5.90
2009,06,30,06,28,5.90
2009,06,30,06,29,5.90
2009,06,30,06,30,5.90
2009,06,30,06,31,5.90
2009,06,30,06,32,5.90
2009,06,30,06,33,5.90
2009,06,30,06,34,6.00
2009,06,30,06,35,6.00
2009,06,30,06,36,6.00
2009,06,30,06,37,6.00
2009,06,30,06,38,6.00
2009,06,30,06,39,6.10
2009,06,30,06,40,6.10
2009,06,30,06,41,6.10
2009,06,30,06,42,6.10
2009,06,30,06,43,6.20
2009,06,30,06,44,6.20
2009,06,30,06,45,6.20
2009,06,30,06,46,6.20
2009,06,30,06,47,6.30
2009,06,30,06,48,6.30
2009,06,30,06,49,6.30
2009,06,30,06,50,6.30
2009,06,30,06,51,6.40
2009,06,30,06,52,6.40
2009,06,30,06,53,6.40
2009,06,30,06,54,6.50
2009,06,30,06,55,6.50
2009,06,30,06,56,6.60
2009,06,30,06,57,6.60
2009,06,30,06,58,6.60
2009,06,30,06,59,6.60
2009,06,30,07,00,6.70
2009,06,30,07,01,6.70
2009,06,30,07,02,6.70
2009,06,30,07,03,6.80
2009,06,30,07,04,6.80
2009,06,30,07,05,6.90
2009,06,30,07,06,6.90
2009,06,30,07,07,6.90
2009,06,30,07,08,7.00
2009,06,30,07,09,7.10
2009,06,30,07,10,7.10
2009,06,30,07,11,7.20
2009,06,30,07,12,7.20
2009,06,30,07,13,7.20
2009,06,30,07,14,7.30
2009,06,30,07,15,7.30
2009,06,30,07,16,7.40
2009,06,30,07,17,7.40
2009,06,30,07,18,7.50
2009,06,30,07,19,7.50
2009,06,30,07,20,7.60
2009,06,30,07,21,7.70
2009,06,30,07,22,7.70
2009,06,30,07,23,7.80
2009,06,30,07,24,7.90
2009,06,30,07,25,8.00
2009,06,30,07,26,8.10
2009,06,30,07,27,8.20
2009,06,30,07,28,8.40
2009,06,30,07,29,8.50
2009,06,30,07,30,8.70
2009,06,30,07,31,8.90
2009,06,30,07,32,9.10
2009,06,30,07,33,9.20
2009,06,30,07,34,9.40
2009,06,30,07,35,9.60
2009,06,30,07,36,9.80
2009,06,30,07,37,10.10
2009,06,30,07,38,10.30
2009,06,30,07,39,10.50
2009,06,30,07,40,10.70
2009,06,30,07,41,10.90
2009,06,30,07,42,11.00
2009,06,30,07,43,11.20
2009,06,30,07,44,11.30
2009,06,30,07,45,11.50
2009,06,30,07,46,11.70
2009,06,30,07,47,12.00
2009,06,30,07,48,12.20
2009,06,30,07,49,12.40
2009,06,30,07,50,12.50
2009,06,30,07,51,12.70
2009,06,30,07,52,12.80
2009,06,30,07,53,12.90
2009,06,30,07,54,13.10
2009,06,30,07,55,13.20
2009,06,30,07,56,13.30
2009,06,30,07,57,13.30
2009,06,30,07,58,13.40
2009,06,30,07,59,13.50
2009,06,30,08,00,13.50
2009,06,30,08,01,13.60
2009,06,30,08,02,13.70
2009,06,30,08,03,13.70
2009,06,30,08,04,13.80
2009,06,30,08,05,13.90
2009,06,30,08,06,14.00
2009,06,30,08,07,14.00
2009,06,30,08,08,13.90
2009,06,30,08,09,13.90
2009,06,30,08,10,13.90
2009,06,30,08,11,13.90
2009,06,30,08,12,13.90
2009,06,30,08,13,14.00
2009,06,30,08,14,14.00
2009,06,30,08,15,14.10
2009,06,30,08,16,14.10
2009,06,30,08,17,14.20
2009,06,30,08,18,14.20
2009,06,30,08,19,14.30
2009,06,30,08,20,14.30
2009,06,30,08,21,14.30
2009,06,30,08,22,14.30
2009,06,30,08,23,14.30
2009,06,30,08,24,14.30
2009,06,30,08,25,14.30
2009,06,30,08,26,14.30
2009,06,30,08,27,14.40
2009,06,30,08,28,14.40
2009,06,30,08,29,14.40
2009,06,30,08,30,14.50
2009,06,30,08,31,14.60
2009,06,30,08,32,14.70
2009,06,30,08,33,14.70
2009,06,30,08,34,14.80
2009,06,30,08,35,14.80
2009,06,30,08,36,14.90
2009,06,30,08,37,15.00
2009,06,30,08,38,15.00
2009,06,30,08,39,15.00
2009,06,30,08,40,15.00
2009,06,30,08,41,15.00
2009,06,30,08,42,15.10
2009,06,30,08,43,15.10
2009,06,30,08,44,15.20
2009,06,30,08,45,15.20
2009,06,30,08,46,15.30
2009,06,30,08,47,15.40
2009,06,30,08,48,15.50
2009,06,30,08,49,15.50
2009,06,30,08,50,15.50
2009,06,30,08,51,15.50
2009,06,30,08,52,15.50
2009,06,30,08,53,15.50
2009,06,30,08,54,15.40
2009,06,30,08,55,15.50
2009,06,30,08,56,15.50
2009,06,30,08,57,15.60
2009,06,30,08,58,15.70
2009,06,30,08,59,15.70
2009,06,30,09,00,15.70
2009,06,30,09,01,15.60
2009,06,30,09,02,15.50
2009,06,30,09,03,15.50
2009,06,30,09,04,15.50
2009,06,30,09,05,15.60
2009,06,30,09,06,15.60
2009,06,30,09,07,15.70
2009,06,30,09,08,15.70
2009,06,30,09,09,15.80
2009,06,30,09,10,15.80
2009,06,30,09,11,15.90
2009,06,30,09,12,15.90
2009,06,30,09,13,15.80
2009,06,30,09,14,15.80
2009,06,30,09,15,15.80
2009,06,30,09,16,15.80
2009,06,30,09,17,15.80
2009,06,30,09,18,15.80
2009,06,30,09,19,15.80
2009,06,30,09,20,15.80
2009,06,30,09,21,15.70
2009,06,30,09,22,15.70
2009,06,30,09,23,15.70
2009,06,30,09,24,15.80
2009,06,30,09,25,15.70
2009,06,30,09,26,15.60
2009,06,30,09,27,15.60
2009,06,30,09,28,15.70
2009,06,30,09,29,15.70
2009,06,30,09,30,15.80
2009,06,30,09,31,15.90
2009,06,30,09,32,15.90
2009,06,30,09,33,16.00
2009,06,30,09,34,16.10
2009,06,30,09,35,16.10
2009,06,30,09,36,16.10
2009,06,30,09,37,16.10
2009,06,30,09,38,16.10
2009,06,30,09,39,16.00
2009,06,30,09,40,16.00
2009,06,30,09,41,16.00
2009,06,30,09,42,16.00
2009,06,30,09,43,16.20
2009,06,30,09,44,16.20
2009,06,30,09,45,16.20
2009,06,30,09,46,16.30
2009,06,30,09,47,16.30
2009,06,30,09,48,16.30
2009,06,30,09,49,16.30
2009,06,30,09,50,16.40
2009,06,30,09,51,16.40
2009,06,30,09,52,16.60
2009,06,30,09,53,16.70
2009,06,30,09,54,16.80
2009,06,30,09,55,16.90
2009,06,30,09,56,17.00
2009,06,30,09,57,17.20
2009,06,30,09,58,17.30
2009,06,30,09,59,17.50
2009,06,30,10,00,17.60
2009,06,30,10,01,17.70
2009,06,30,10,02,17.70
2009,06,30,10,03,17.50
2009,06,30,10,04,17.50
2009,06,30,10,05,17.40
2009,06,30,10,06,17.40
2009,06,30,10,07,17.30
2009,06,30,10,08,17.30
2009,06,30,10,09,17.30
2009,06,30,10,10,17.30
2009,06,30,10,11,17.40
2009,06,30,10,12,17.40
2009,06,30,10,13,17.60
2009,06,30,10,14,17.60
2009,06,30,10,15,17.70
2009,06,30,10,16,17.70
2009,06,30,10,17,17.70
2009,06,30,10,18,17.70
2009,06,30,10,19,17.60
2009,06,30,10,20,17.40
2009,06,30,10,21,17.40
2009,06,30,10,22,17.30
2009,06,30,10,23,17.30
2009,06,30,10,24,17.30
2009,06,30,10,25,17.20
2009,06,30,10,26,17.30
2009,06,30,10,27,17.30
2009,06,30,10,28,17.30
2009,06,30,10,29,17.30
2009,06,30,10,30,17.30
2009,06,30,10,31,17.20
2009,06,30,10,32,17.10
2009,06,30,10,33,17.00
2009,06,30,10,34,17.00
2009,06,30,10,35,17.10
2009,06,30,10,36,17.10
2009,06,30,10,37,17.10
2009,06,30,10,38,17.10
2009,06,30,10,39,17.10
2009,06,30,10,40,17.20
2009,06,30,10,41,17.30
2009,06,30,10,42,17.40
2009,06,30,10,43,17.60
2009,06,30,10,44,17.80
2009,06,30,10,45,18.00
2009,06,30,10,46,18.20
2009,06,30,10,47,18.30
2009,06,30,10,48,18.30
2009,06,30,10,49,18.30
2009,06,30,10,50,18.40
2009,06,30,10,51,18.40
2009,06,30,10,52,18.50
2009,06,30,10,53,18.60
2009,06,30,10,54,18.70
2009,06,30,10,55,18.70
2009,06,30,10,56,18.70
2009,06,30,10,57,18.60
2009,06,30,10,58,18.60
2009,06,30,10,59,18.60
2009,06,30,11,00,18.60
2009,06,30,11,01,18.50
2009,06,30,11,02,18.40
2009,06,30,11,03,18.40
2009,06,30,11,04,18.30
2009,06,30,11,05,18.30
2009,06,30,11,06,18.30
2009,06,30,11,07,18.20
2009,06,30,11,08,18.20
2009,06,30,11,09,18.20
2009,06,30,11,10,18.20
2009,06,30,11,11,18.20
2009,06,30,11,12,18.20
2009,06,30,11,13,18.10
2009,06,30,11,14,18.00
2009,06,30,11,15,17.90
2009,06,30,11,16,17.90
2009,06,30,11,17,18.00
2009,06,30,11,18,18.00
2009,06,30,11,19,18.10
2009,06,30,11,20,18.10
2009,06,30,11,21,18.20
2009,06,30,11,22,18.20
2009,06,30,11,23,18.20
2009,06,30,11,24,18.20
2009,06,30,11,25,18.10
2009,06,30,11,26,18.20
2009,06,30,11,27,18.20
2009,06,30,11,28,18.20
2009,06,30,11,29,18.30
2009,06,30,11,30,18.40
2009,06,30,11,31,18.50
2009,06,30,11,32,18.50
2009,06,30,11,33,18.50
2009,06,30,11,34,18.50
2009,06,30,11,35,18.40
2009,06,30,11,36,18.40
2009,06,30,11,37,18.40
2009,06,30,11,38,18.50
2009,06,30,11,39,18.60
2009,06,30,11,40,18.80
2009,06,30,11,41,18.90
2009,06,30,11,42,19.00
2009,06,30,11,43,19.10
2009,06,30,11,44,19.20
2009,06,30,11,45,19.30
2009,06,30,11,46,19.40
2009,06,30,11,47,19.40
2009,06,30,11,48,19.40
2009,06,30,11,49,19.40
2009,06,30,11,50,19.30
2009,06,30,11,51,19.30
2009,06,30,11,52,19.20
2009,06,30,11,53,19.10
2009,06,30,11,54,19.10
2009,06,30,11,55,19.10
2009,06,30,11,56,19.20
2009,06,30,11,57,19.30
2009,06,30,11,58,19.10
2009,06,30,11,59,19.00
2009,06,30,12,00,18.90
2009,06,30,12,01,19.00
2009,06,30,12,02,19.00
2009,06,30,12,03,19.00
2009,06,30,12,04,19.10
2009,06,30,12,05,19.00
2009,06,30,12,06,19.00
2009,06,30,12,07,19.10
2009,06,30,12,08,19.00
2009,06,30,12,09,18.90
2009,06,30,12,10,18.90
2009,06,30,12,11,18.90
2009,06,30,12,12,18.90
2009,06,30,12,13,18.90
2009,06,30,12,14,18.80
2009,06,30,12,15,18.70
2009,06,30,12,16,18.60
2009,06,30,12,17,18.70
2009,06,30,12,18,18.70
2009,06,30,12,19,18.90
2009,06,30,12,20,18.90
2009,06,30,12,21,19.00
2009,06,30,12,22,19.10
2009,06,30,12,23,19.10
2009,06,30,12,24,19.10
2009,06,30,12,25,19.00
2009,06,30,12,26,19.10
2009,06,30,12,27,19.20
2009,06,30,12,28,19.30
2009,06,30,12,29,19.40
2009,06,30,12,30,19.50
2009,06,30,12,31,19.60
2009,06,30,12,32,19.60
2009,06,30,12,33,19.50
2009,06,30,12,34,19.30
2009,06,30,12,35,19.00
2009,06,30,12,36,18.90
2009,06,30,12,37,18.80
2009,06,30,12,38,18.80
2009,06,30,12,39,18.70
2009,06,30,12,40,18.70
2009,06,30,12,41,18.70
2009,06,30,12,42,18.70
2009,06,30,12,43,18.70
2009,06,30,12,44,18.70
2009,06,30,12,45,18.80
2009,06,30,12,46,18.90
2009,06,30,12,47,18.90
2009,06,30,12,48,18.90
2009,06,30,12,49,19.00
2009,06,30,12,50,19.00
2009,06,30,12,51,19.00
2009,06,30,12,52,18.90
2009,06,30,12,53,18.90
2009,06,30,12,54,18.80
2009,06,30,12,55,18.80
2009,06,30,12,56,18.90
2009,06,30,12,57,18.90
2009,06,30,12,58,18.90
2009,06,30,12,59,18.80
2009,06,30,13,00,18.90
2009,06,30,13,01,19.00
2009,06,30,13,02,19.10
2009,06,30,13,03,19.20
2009,06,30,13,04,19.20
2009,06,30,13,05,19.20
2009,06,30,13,06,19.20
2009,06,30,13,07,19.20
2009,06,30,13,08,19.30
2009,06,30,13,09,19.40
2009,06,30,13,10,19.60
2009,06,30,13,11,19.70
2009,06,30,13,12,19.70
2009,06,30,13,13,19.70
2009,06,30,13,14,19.70
2009,06,30,13,15,19.80
2009,06,30,13,16,19.80
2009,06,30,13,17,19.90
2009,06,30,13,18,20.00
2009,06,30,13,19,20.00
2009,06,30,13,20,20.00
2009,06,30,13,21,20.00
2009,06,30,13,22,19.90
2009,06,30,13,23,19.80
2009,06,30,13,24,19.50
2009,06,30,13,25,19.30
2009,06,30,13,26,19.30
2009,06,30,13,27,19.20
2009,06,30,13,28,19.20
2009,06,30,13,29,19.10
2009,06,30,13,30,19.00
2009,06,30,13,31,18.80
2009,06,30,13,32,18.70
2009,06,30,13,33,18.70
2009,06,30,13,34,18.70
2009,06,30,13,35,18.70
2009,06,30,13,36,18.90
2009,06,30,13,37,19.00
2009,06,30,13,38,19.10
2009,06,30,13,39,19.20
2009,06,30,13,40,19.30
2009,06,30,13,41,19.30
2009,06,30,13,42,19.40
2009,06,30,13,43,19.60
2009,06,30,13,44,19.70
2009,06,30,13,45,19.80
2009,06,30,13,46,20.00
2009,06,30,13,47,20.20
2009,06,30,13,48,20.20
2009,06,30,13,49,20.10
2009,06,30,13,50,20.00
2009,06,30,13,51,19.90
2009,06,30,13,52,19.80
2009,06,30,13,53,19.70
2009,06,30,13,54,19.60
2009,06,30,13,55,19.60
2009,06,30,13,56,19.70
2009,06,30,13,57,19.70
2009,06,30,13,58,19.70
2009,06,30,13,59,19.70
2009,06,30,14,00,19.70
2009,06,30,14,01,19.80
2009,06,30,14,02,19.90
2009,06,30,14,03,19.90
2009,06,30,14,04,20.00
2009,06,30,14,05,20.00
2009,06,30,14,06,20.10
2009,06,30,14,07,20.10
2009,06,30,14,08,20.10
2009,06,30,14,09,20.10
2009,06,30,14,10,20.10
2009,06,30,14,11,20.10
2009,06,30,14,12,20.10
2009,06,30,14,13,20.20
2009,06,30,14,14,20.20
2009,06,30,14,15,20.20
2009,06,30,14,16,20.30
2009,06,30,14,17,20.30
2009,06,30,14,18,20.20
2009,06,30,14,19,19.90
2009,06,30,14,20,19.80
2009,06,30,14,21,19.60
2009,06,30,14,22,19.50
2009,06,30,14,23,19.40
2009,06,30,14,24,19.30
2009,06,30,14,25,19.30
2009,06,30,14,26,19.40
2009,06,30,14,27,19.60
2009,06,30,14,28,19.70
2009,06,30,14,29,19.70
2009,06,30,14,30,19.80
2009,06,30,14,31,19.80
2009,06,30,14,32,19.80
2009,06,30,14,33,19.90
2009,06,30,14,34,19.90
2009,06,30,14,35,20.00
2009,06,30,14,36,20.00
2009,06,30,14,37,19.90
2009,06,30,14,38,19.90
2009,06,30,14,39,19.90
2009,06,30,14,40,19.90
2009,06,30,14,41,19.90
2009,06,30,14,42,19.90
2009,06,30,14,43,19.90
2009,06,30,14,44,19.90
2009,06,30,14,45,19.90
2009,06,30,14,46,19.90
2009,06,30,14,47,19.90
2009,06,30,14,48,19.90
2009,06,30,14,49,19.90
2009,06,30,14,50,19.90
2009,06,30,14,51,19.90
2009,06,30,14,52,19.80
2009,06,30,14,53,19.90
2009,06,30,14,54,20.00
2009,06,30,14,55,20.20
2009,06,30,14,56,20.20
2009,06,30,14,57,20.20
2009,06,30,14,58,20.20
2009,06,30,14,59,20.30
2009,06,30,15,00,20.30
2009,06,30,15,01,20.30
2009,06,30,15,02,20.30
2009,06,30,15,03,20.30
2009,06,30,15,04,20.30
2009,06,30,15,05,20.30
2009,06,30,15,06,20.30
2009,06,30,15,07,20.30
2009,06,30,15,08,20.20
2009,06,30,15,09,20.20
2009,06,30,15,10,20.20
2009,06,30,15,11,20.30
2009,06,30,15,12,20.40
2009,06,30,15,13,20.50
2009,06,30,15,14,20.60
2009,06,30,15,15,20.60
2009,06,30,15,16,20.80
2009,06,30,15,17,20.90
2009,06,30,15,18,20.90
2009,06,30,15,19,20.80
2009,06,30,15,20,20.80
2009,06,30,15,21,20.90
2009,06,30,15,22,21.00
2009,06,30,15,23,21.00
2009,06,30,15,24,21.00
2009,06,30,15,25,21.00
2009,06,30,15,26,21.10
2009,06,30,15,27,21.10
2009,06,30,15,28,21.10
2009,06,30,15,29,21.10
2009,06,30,15,30,21.20
2009,06,30,15,31,21.20
2009,06,30,15,32,21.20
2009,06,30,15,33,21.30
2009,06,30,15,34,21.30
2009,06,30,15,35,21.30
2009,06,30,15,36,21.20
2009,06,30,15,37,21.20
2009,06,30,15,38,21.20
2009,06,30,15,39,21.20
2009,06,30,15,40,21.20
2009,06,30,15,41,21.20
2009,06,30,15,42,21.20
2009,06,30,15,43,21.20
2009,06,30,15,44,21.20
2009,06,30,15,45,21.10
2009,06,30,15,46,21.00
2009,06,30,15,47,20.90
2009,06,30,15,48,20.70
2009,06,30,15,49,20.70
2009,06,30,15,50,20.70
2009,06,30,15,51,20.70
2009,06,30,15,52,20.60
2009,06,30,15,53,20.60
2009,06,30,15,54,20.60
2009,06,30,15,55,20.50
2009,06,30,15,56,20.50
2009,06,30,15,57,20.60
2009,06,30,15,58,20.60
2009,06,30,15,59,20.70
2009,06,30,16,00,20.90
2009,06,30,16,01,21.00
2009,06,30,16,02,21.10
2009,06,30,16,03,21.20
2009,06,30,16,04,21.20
2009,06,30,16,05,21.10
2009,06,30,16,06,20.90
2009,06,30,16,07,20.70
2009,06,30,16,08,20.60
2009,06,30,16,09,20.50
2009,06,30,16,10,20.50
2009,06,30,16,11,20.50
2009,06,30,16,12,20.50
2009,06,30,16,13,20.50
2009,06,30,16,14,20.50
2009,06,30,16,15,20.50
2009,06,30,16,16,20.50
2009,06,30,16,17,20.50
2009,06,30,16,18,20.50
2009,06,30,16,19,20.50
2009,06,30,16,20,20.40
2009,06,30,16,21,20.40
2009,06,30,16,22,20.40
2009,06,30,16,23,20.40
2009,06,30,16,24,20.40
2009,06,30,16,25,20.40
2009,06,30,16,26,20.50
2009,06,30,16,27,20.50
2009,06,30,16,28,20.40
2009,06,30,16,29,20.40
2009,06,30,16,30,20.40
2009,06,30,16,31,20.40
2009,06,30,16,32,20.40
2009,06,30,16,33,20.40
2009,06,30,16,34,20.30
2009,06,30,16,35,20.30
2009,06,30,16,36,20.30
2009,06,30,16,37,20.30
2009,06,30,16,38,20.30
2009,06,30,16,39,20.30
2009,06,30,16,40,20.20
2009,06,30,16,41,20.20
2009,06,30,16,42,20.30
2009,06,30,16,43,20.30
2009,06,30,16,44,20.30
2009,06,30,16,45,20.30
2009,06,30,16,46,20.30
2009,06,30,16,47,20.30
2009,06,30,16,48,20.30
2009,06,30,16,49,20.40
2009,06,30,16,50,20.40
2009,06,30,16,51,20.50
2009,06,30,16,52,20.50
2009,06,30,16,53,20.50
2009,06,30,16,54,20.50
2009,06,30,16,55,20.50
2009,06,30,16,56,20.50
2009,06,30,16,57,20.50
2009,06,30,16,58,20.50
2009,06,30,16,59,20.40
2009,06,30,17,00,20.50
2009,06,30,17,01,20.50
2009,06,30,17,02,20.60
2009,06,30,17,03,20.60
2009,06,30,17,04,20.70
2009,06,30,17,05,20.60
2009,06,30,17,06,20.60
2009,06,30,17,07,20.60
2009,06,30,17,08,20.50
2009,06,30,17,09,20.50
2009,06,30,17,10,20.50
2009,06,30,17,11,20.40
2009,06,30,17,12,20.40
2009,06,30,17,13,20.40
2009,06,30,17,14,20.30
2009,06,30,17,15,20.40
2009,06,30,17,16,20.40
2009,06,30,17,17,20.40
2009,06,30,17,18,20.50
2009,06,30,17,19,20.50
2009,06,30,17,20,20.50
2009,06,30,17,21,20.50
2009,06,30,17,22,20.50
2009,06,30,17,23,20.50
2009,06,30,17,24,20.50
2009,06,30,17,25,20.50
2009,06,30,17,26,20.50
2009,06,30,17,27,20.50
2009,06,30,17,28,20.50
2009,06,30,17,29,20.40
2009,06,30,17,30,20.30
2009,06,30,17,31,20.20
2009,06,30,17,32,20.20
2009,06,30,17,33,20.10
2009,06,30,17,34,20.10
2009,06,30,17,35,20.10
2009,06,30,17,36,20.10
2009,06,30,17,37,20.00
2009,06,30,17,38,20.00
2009,06,30,17,39,20.00
2009,06,30,17,40,19.90
2009,06,30,17,41,19.90
2009,06,30,17,42,19.90
2009,06,30,17,43,19.80
2009,06,30,17,44,19.80
2009,06,30,17,45,19.80
2009,06,30,17,46,19.70
2009,06,30,17,47,19.70
2009,06,30,17,48,19.70
2009,06,30,17,49,19.70
2009,06,30,17,50,19.70
2009,06,30,17,51,19.70
2009,06,30,17,52,19.70
2009,06,30,17,53,19.70
2009,06,30,17,54,19.70
2009,06,30,17,55,19.70
2009,06,30,17,56,19.80
2009,06,30,17,57,19.80
2009,06,30,17,58,19.80
2009,06,30,17,59,19.80
2009,06,30,18,00,19.80
2009,06,30,18,01,19.80
2009,06,30,18,02,19.80
2009,06,30,18,03,19.80
2009,06,30,18,04,19.80